Volver al catálogo

STARLINK-3994

ActivoComunicacionesVLEO
NORAD 52633·PAYLOAD·🇺🇸 United States

Lanzado May 14, 2022 desde Cape Canaveral Space Force Station

Loading…

Próximos Pases (próximas 24 horas)

TLE

ActualizadoSource: CelesTrak SupGP

Época: Sep 14, 2026, 21:34 UTC

1 52633C 22052AM  26257.89909722 -.00024713  00000+0 -15505-2 0  2571
2 52633  53.1578 139.0971 0001347  82.4784  27.7217 15.08829935    15

Sigue STARLINK-3994 en tiempo real con AllMySat

Download on the App Store